SCOUT X-1 DEB, 3927

Orbit data source: Space-Track

SCOUT X-1 DEB, 3927 is space debris in LEO originally from a launch on Thu, 16 Feb 1961 UTC launched from the Wallops Island (WLPIS). Debris objects in space refer to the collection of defunct objects orbiting the Earth. Examples of debris include non-operational satellites, rocket bodies, and fragments generated from explosions, collisions, or faulty payload assembly.

Loading next visibility...
Identifier
3927, 1961-004F
Orbit
LEO
Country
Flag of USUS
Related business
Manufacturer
Unknown
Mission
Spacecraft
Bus & Motor
Unknown
Mass
Unknown
Launch date (UTC)
1961-02-16 (65 years ago)
Launch vehicle
Unknown
Launch site
Wallops Island (WLPIS)
Object type
Payload
Rocket body
Debris
Shape & HBR
Unknown
Radar Cross Section
Small (<0.1 m²)

Expand to show TLE details & history
Last TLE update: 9 hours ago

TLE from 9 hours ago
0 SCOUT X-1 DEB
1 03927U 61004F   25258.11258030  .00035190  00000-0  26582-2 0  9997
2 03927  38.9766 170.5099 0177205 266.9640  91.0843 14.89962854 89275
Epoch: 2025-09-15T02:42Z
TLE epoch observation values (Epoch: 2025-09-15T02:42:06.937Z)
Latitude
-0.00003°
Longitude
135.65906°
Altitude
601.92 km
Speed
7.558 km/s
True Right ascension
11h 22m 02s
True Declination
0° 00' 00"
Sunlit
Object was in daylight at epoch
Visualization orbit readout
Latitude
Unknown
Longitude
Unknown
Altitude
Unknown
Speed
Unknown
Apparent Right ascension
Unknown
Apparent Declination
Unknown
Sunlit
N/A
Visualization observer readout
Local Sidereal Time
04:50:05
Azimuth
Unknown
Elevation
Unknown
Doppler factor
Unknown
Orbital elements
Apogee altitude
724.291 km
Perigee altitude
476.957 km
Semi-major axis
6,978.761 km
Eccentricity
0.01772
Inclination
38.9766°
RAAN
170.5099°
Arg. of periapsis
266.964°
True anomaly
93.11328°
Mean anomaly
91.0843°
Eccentric anomaly
92.09893°
Mean motion
3.72285 °/min
Orbital period
96.7 mins
BSTAR
0.0026582
Loading maneuver chart data...
Computing Atmospheric mass density...
Loading historical data...
Loading historical data...
Loading historical data...
Loading historical data...
Loading historical data...
Loading historical data...
Loading historical data...

Documentation

Showing up to 5 results
|